Station MRHO1 - 9063079 - Marblehead, OH Image indicating link to RSS feed of recent meteorological observations for station MRHO1


Conditions at MRHO1 as of
(2:30 am EDT)
0630 GMT on 04/15/2024:
     

Click on the graph icon in the table below to see a time series plot of the last five days of that observation.

5-day plot - Wind Direction Wind Direction (WDIR):ENE ( 60 deg true )
5-day plot - Wind Speed Wind Speed (WSPD): 2.9 kts
5-day plot - Wind Gust Wind Gust (GST): 4.1 kts
5-day plot - Atmospheric Pressure Atmospheric Pressure (PRES):29.79 in
5-day plot - Air Temperature Air Temperature (ATMP): 50.9 °F
5-day plot - Dew Point Dew Point (DEWP): 42.3 °F
5-day plot - Wind Chill Wind Chill (CHILL): 50.4 °F
5-day plot - Wind Speed at 10 Meters Wind Speed at 10 meters (WSPD10M): 3.9 kts
5-day plot - Wind Speed at 20 Meters Wind Speed at 20 meters (WSPD20M): 3.9 kts
5-day plot -  Wind Speed, Wind Gust and Atmospheric Pressure Combined plot of Wind Speed, Gust, and Air Pressure
NOS Water Level Observation Network Water Level
Previous observations
TIME
(EDT)
5-day plot - Wind Direction
WDIR
 
5-day plot - Wind Speed
WSPD
kts
5-day plot - Wind Gust
GST
kts
5-day plot - Wave Height
WVHT
ft
5-day plot - Dominant Wave Period
DPD
sec
5-day plot - Average Wave Period
APD
sec
5-day plot - Mean Wave Direction
MWD
 
5-day plot - Atmospheric Pressure
PRES
in
5-day plot - Pressure Tendency
PTDY
in
5-day plot - Air Temperature
ATMP
°F
5-day plot - Water Temperature
WTMP
°F
5-day plot - Dew Point
DEWP
°F
5-day plot - Salinity
SAL
psu
5-day plot - Visibility
VIS
nmi
5-day plot - Tide (above MLLW)
TIDE
ft
2024-04-15 02:24 am E 2.9 4.1----29.78- 50.9- 42.1---
2024-04-15 02:18 am E 2.9 5.1----29.78- 50.7- 42.1---
2024-04-15 02:12 am E 5.1 6.0----29.78- 50.7- 41.5---
2024-04-15 02:06 amESE 2.9 6.0----29.78- 50.4- 41.4---
2024-04-15 02:00 amESE 2.9 6.0----29.79+0.04 50.4- 41.0---
2024-04-15 01:54 amESE 4.1 7.0----29.79- 50.4- 40.1---
2024-04-15 01:48 am SE 4.1 7.0----29.79- 50.2- 41.5---
2024-04-15 01:42 amESE 5.1 6.0----29.78- 50.2- 41.4---
2024-04-15 01:36 amESE 4.1 7.0----29.79- 50.2- 41.4---
2024-04-15 01:30 amESE 5.1 6.0----29.79- 50.0- 41.2---
2024-04-15 01:24 amESE 4.1 5.1----29.78- 50.2- 41.5---
2024-04-15 01:18 amESE 4.1 6.0----29.78- 50.0- 41.5---
2024-04-15 01:12 am E 4.1 6.0----29.78- 50.4- 41.9---
2024-04-15 01:06 am E 5.1 8.0----29.78- 50.7- 41.9---
2024-04-15 01:00 am E 4.1 5.1----29.78+0.06 50.7- 42.1---
2024-04-15 12:54 am E 4.1 5.1----29.78- 50.7- 42.1---
2024-04-15 12:48 am E 4.1 5.1----29.78- 50.7- 42.1---
2024-04-15 12:42 amENE 5.1 8.0----29.78- 51.1- 42.1---
2024-04-15 12:36 amENE 5.1 6.0----29.78- 51.4- 41.9---
2024-04-15 12:30 am NE 2.9 5.1----29.78- 51.4- 42.1---
2024-04-15 12:24 amENE 1.9 4.1----29.78- 51.8- 42.6---
2024-04-15 12:18 am E 1.9 5.1----29.77- 52.0- 42.8---
2024-04-15 12:12 amENE 2.9 5.1----29.77- 52.3- 42.8---
2024-04-15 12:06 am E 2.9 6.0----29.77- 52.9- 43.5---
2024-04-15 12:00 am E 5.1 8.9----29.76+0.06 53.4- 43.5---
2024-04-14 11:54 pmENE 6.0 9.9----29.76- 54.0- 43.2---
2024-04-14 11:48 pm NE 8.0 9.9----29.76- 55.4- 43.2---
2024-04-14 11:42 pm NE 4.1 6.0----29.76- 56.3- 43.2---
2024-04-14 11:36 pm NE 2.9 5.1----29.75- 56.7- 43.7---
2024-04-14 11:30 pmNNE 5.1 5.1----29.75- 56.7- 43.9---
2024-04-14 11:24 pm N 5.1 6.0----29.75- 55.4- 44.1---
2024-04-14 11:18 pm N 6.0 8.0----29.75- 55.2- 43.5---
2024-04-14 11:12 pm N 8.0 8.9----29.75- 55.2- 43.0---
2024-04-14 11:06 pm NW 8.9 11.1----29.75- 56.7- 43.0---
2024-04-14 11:00 pm NW 12.0 14.0----29.74+0.07 58.1- 43.5---
2024-04-14 10:54 pmWNW 9.9 9.9----29.74- 56.5- 44.1---
2024-04-14 10:48 pmWNW 8.9 11.1----29.74- 57.0- 43.9---
2024-04-14 10:42 pmWNW 9.9 9.9----29.73- 58.1- 44.1---
2024-04-14 10:36 pmWNW 8.0 8.9----29.73- 58.5- 44.4---
2024-04-14 10:30 pmWNW 8.0 8.0----29.73- 57.7- 44.4---
2024-04-14 10:24 pmWNW 7.0 8.0----29.72- 57.6- 43.9---
2024-04-14 10:18 pmWNW 8.0 8.9----29.72- 58.6- 43.9---
2024-04-14 10:12 pmWNW 7.0 8.0----29.72- 59.0- 43.9---
2024-04-14 10:06 pmWNW 8.0 9.9----29.72- 59.7- 43.5---
2024-04-14 10:00 pmWNW 8.9 9.9----29.72+0.07 60.3- 43.7---
2024-04-14 09:54 pmWNW 9.9 11.1----29.72- 60.8- 43.5---
2024-04-14 09:48 pmWNW 12.0 14.0----29.72- 62.6- 43.3---
2024-04-14 09:42 pm W 12.0 14.0----29.72- 62.6- 43.3---
2024-04-14 09:36 pm W 13.0 17.1----29.72- 65.5- 42.1---
2024-04-14 09:30 pm W 12.0 17.1----29.72- 69.8- 41.9---
2024-04-14 09:24 pm W 13.0 15.9----29.71- 70.9- 41.4---
2024-04-14 09:18 pm W 12.0 15.0----29.71- 70.7- 41.7---
2024-04-14 09:12 pm W 11.1 15.0----29.70- 71.1- 41.7---
2024-04-14 09:06 pm W 9.9 13.0----29.70- 70.3- 42.8---
2024-04-14 09:00 pm W 9.9 13.0----29.70+0.06 69.6- 42.3---
2024-04-14 08:54 pm W 8.9 14.0----29.70- 70.9- 42.6---
2024-04-14 08:48 pm W 11.1 14.0----29.70-------
2024-04-14 08:42 pm W 12.0 14.0----29.69-------
2024-04-14 08:36 pm W 11.1 14.0----29.69-------
2024-04-14 08:30 pm-------29.69- 70.7- 43.5---
2024-04-14 08:24 pm-------29.68- 70.9- 43.2---
2024-04-14 08:18 pm W 9.9 14.0------ 70.5- 43.0---
2024-04-14 08:12 pm W 12.0 18.1------ 71.6- 42.8---
2024-04-14 08:06 pm W 12.0 15.9------ 71.1- 43.5---
2024-04-14 08:00 pm W 11.1 15.0----29.67+0.04 69.4- 43.3---
2024-04-14 07:54 pm W 12.0 15.9----29.67- 69.6- 43.3---
2024-04-14 07:48 pm W 12.0 17.1----29.67- 70.7- 43.2---
2024-04-14 07:42 pm W 13.0 15.9----29.67- 71.6- 43.9---
2024-04-14 07:36 pm W 11.1 14.0----29.67- 71.2- 45.5---
2024-04-14 07:30 pm W 11.1 12.0----29.67- 66.4- 44.8---
2024-04-14 07:24 pm W 7.0 12.0----29.66- 72.7- 45.1---
2024-04-14 07:18 pm W 9.9 14.0----29.66- 73.8- 45.1---
2024-04-14 07:12 pm W 8.9 14.0----29.66- 74.1- 45.5---
2024-04-14 07:06 pm W 11.1 14.0----29.66- 73.4- 44.8---
2024-04-14 07:00 pm W 8.9 14.0----29.66+0.02------
2024-04-14 06:54 pm W 8.9 15.0----29.66-------
2024-04-14 06:48 pm W 11.1 15.0----29.66- 75.7- 44.6---
2024-04-14 06:42 pm W 8.9 15.0----29.65- 75.6- 44.6---
2024-04-14 06:36 pm W 11.1 15.9----29.65- 76.3- 44.4---
2024-04-14 06:30 pm W 14.0 17.1----29.65- 76.3- 44.1---
2024-04-14 06:24 pm W 9.9 19.0----29.65- 76.5- 44.1---
2024-04-14 06:18 pm W 12.0 21.0----29.65- 76.8- 44.1---
2024-04-14 06:12 pm W 13.0 22.0----29.65- 76.5- 44.4---
2024-04-14 06:06 pm W 13.0 17.1----29.65- 75.6- 44.4---
2024-04-14 06:00 pm W 12.0 15.9----29.64+0.01 76.6- 44.6---
2024-04-14 05:54 pm W 15.0 21.0----29.65- 77.0- 44.4---
2024-04-14 05:48 pm W 13.0 19.0----29.64-------
2024-04-14 05:42 pm W 13.0 25.1----29.64-------
2024-04-14 05:36 pm W 15.0 22.9----29.64-------
2024-04-14 05:30 pm W 14.0 22.0----29.64-------
2024-04-14 05:24 pm W 15.0 21.0----29.64-------
2024-04-14 05:18 pm W 13.0 21.0----29.64- 76.8- 43.9---
2024-04-14 05:12 pm W 13.0 22.0----29.63- 77.0- 43.7---
2024-04-14 05:06 pm W 13.0 20.0----29.63- 77.4- 43.7---
2024-04-14 05:00 pm W 15.0 24.1----29.63+0.00 77.5- 43.5---
2024-04-14 04:54 pm W 11.1 20.0----29.63- 78.4- 43.2---
2024-04-14 04:48 pm W 11.1 22.0----29.63- 77.4- 43.3---
2024-04-14 04:42 pm W 13.0 25.1----29.63- 78.1- 42.8---
2024-04-14 04:36 pm W 9.9 20.0----29.63- 78.3- 42.6---
2024-04-14 04:30 pm W 15.0 27.0----29.62- 77.4- 43.2---
2024-04-14 04:24 pm W 8.9 20.0----29.62- 77.7- 43.7---
2024-04-14 04:18 pmWSW 12.0 19.0----29.63- 77.9- 43.0---
2024-04-14 04:12 pm W 11.1 15.9----29.63- 78.6- 43.5---
2024-04-14 04:06 pm W 14.0 21.0----29.63- 78.4- 43.5---
2024-04-14 04:00 pm W 12.0 21.0----29.64+0.00 77.7- 43.7---
2024-04-14 03:54 pm W 8.0 19.0----29.63- 77.7- 43.7---
2024-04-14 03:48 pmWSW 7.0 20.0----29.63- 78.1- 43.3---
2024-04-14 03:42 pm W 15.0 20.0----29.63- 77.4- 43.2---
2024-04-14 03:36 pm W 13.0 20.0----29.63- 77.4- 42.6---
2024-04-14 03:30 pm W 14.0 22.0----29.64- 77.0- 42.6---
2024-04-14 03:24 pm W 12.0 21.0----29.64- 76.8- 43.0---
2024-04-14 03:18 pm W 12.0 17.1----29.63- 76.6- 42.8---
2024-04-14 03:12 pm W 15.9 22.0----29.63- 76.6- 42.4---
2024-04-14 03:06 pm W 15.0 21.0----29.64- 76.5- 42.3---
2024-04-14 03:00 pm W 14.0 19.0----29.63+0.00------
2024-04-14 02:54 pm W 11.1 21.0----29.63-------
2024-04-14 02:48 pm W 12.0 17.1----29.64- 76.3- 42.4---
2024-04-14 02:42 pm W 11.1 21.0----29.63- 76.3- 42.8---
2024-04-14 02:36 pm W 15.0 22.0----29.64- 76.3- 42.4---
2024-04-14 02:30 pmWSW 8.0 19.0----29.63- 77.0- 43.7---
2024-04-14 02:24 pmWSW 9.9 18.1----29.64- 76.6- 43.2---
2024-04-14 02:18 pmWSW 8.9 15.9----29.64- 76.6- 43.5---
2024-04-14 02:12 pm SW 9.9 19.0----29.63- 76.1- 43.5---
2024-04-14 02:06 pmWSW 8.9 15.9----29.63- 76.1- 43.7---
2024-04-14 02:00 pmWSW 8.0 13.0----29.63-0.02 75.7- 43.5---
2024-04-14 01:54 pmWSW 8.0 19.0----29.63- 75.7- 43.2---
2024-04-14 01:48 pm W 11.1 22.0----29.64- 75.0- 43.0---
2024-04-14 01:42 pmWSW 9.9 19.0----29.64- 75.2- 42.8---
2024-04-14 01:36 pmWSW 12.0 20.0----29.64- 74.8- 43.0---
2024-04-14 01:30 pmWSW 8.9 17.1----29.64- 74.7- 43.2---
2024-04-14 01:24 pm W 15.0 22.0----29.64- 74.1- 42.8---
2024-04-14 01:18 pm W 15.9 22.0----29.64- 73.9- 42.3---
2024-04-14 01:12 pmWSW 8.9 22.0----29.64- 74.1- 43.0---
2024-04-14 01:06 pmWSW 11.1 20.0----29.64- 73.8- 42.4---
2024-04-14 01:00 pmWSW 12.0 19.0----29.64-0.01 73.8- 42.3---
2024-04-14 12:54 pmWSW 11.1 15.9----29.64- 73.8- 42.3---
2024-04-14 12:48 pm W 8.9 20.0----29.64-------
2024-04-14 12:42 pm SW 11.1 18.1----29.64-------
2024-04-14 12:36 pmWSW 8.0 20.0----29.64-------
2024-04-14 12:30 pmWSW 11.1 19.0----29.64-------
2024-04-14 12:24 pmWSW 9.9 18.1----29.64-------
2024-04-14 12:18 pmWSW 8.0 18.1----29.64- 72.3- 42.6---
2024-04-14 12:12 pmWSW 9.9 18.1----29.64- 72.3- 42.4---
2024-04-14 12:06 pmWSW 9.9 21.0----29.64- 71.6- 42.3---
2024-04-14 12:00 pmWSW 8.9 20.0----29.64-0.04 71.4- 42.1---
2024-04-14 11:54 amWSW 11.1 24.1----29.64- 71.2- 41.9---
2024-04-14 11:48 amWSW 9.9 22.9----29.64- 70.9- 41.7---
2024-04-14 11:42 amWSW 9.9 20.0----29.65- 70.5- 41.5---
2024-04-14 11:36 amWSW 11.1 19.0----29.65- 70.5- 41.5---
2024-04-14 11:30 amWSW 8.9 19.0----29.65-------
2024-04-14 11:24 amWSW 8.9 17.1----29.65-------
2024-04-14 11:18 amWSW 12.0 22.0----29.65-------
2024-04-14 11:12 amWSW 8.9 15.0----29.65-------
2024-04-14 11:06 amWSW 12.0 24.1----29.66-------
2024-04-14 11:00 amWSW 7.0 17.1----29.66-0.03 69.8- 40.5---
2024-04-14 10:54 amWSW 9.9 17.1----29.66- 69.6- 40.3---
2024-04-14 10:48 amWSW 12.0 19.0----29.66- 69.4- 39.9---
2024-04-14 10:42 amWSW 11.1 18.1----29.66- 69.4- 39.6---
2024-04-14 10:36 amWSW 8.9 18.1----29.66- 69.1- 39.7---
2024-04-14 10:30 amWSW 8.0 14.0----29.66- 68.4- 40.3---
2024-04-14 10:24 amWSW 7.0 15.0----29.66- 67.5- 40.5---
2024-04-14 10:18 amWSW 8.0 19.0----29.66- 66.4- 40.6---
2024-04-14 10:12 amWSW 8.9 15.9----29.66- 65.3- 40.6---
2024-04-14 10:06 am SW 7.0 15.9----29.66- 64.6- 41.0---
2024-04-14 10:00 am SW 8.0 15.0----29.66-0.04------
2024-04-14 09:54 amSSW 8.0 17.1----29.66-------
2024-04-14 09:48 am SW 8.0 15.0----29.66- 63.0- 39.9---
2024-04-14 09:42 am SW 7.0 15.0----29.67- 62.4- 40.1---
2024-04-14 09:36 am SW 8.9 18.1----29.67- 62.1- 39.6---
2024-04-14 09:30 am SW 8.0 15.9----29.67-------
2024-04-14 09:24 am SW 8.0 17.1----29.67-------
2024-04-14 09:18 am SW 7.0 15.9----29.67- 62.1- 39.0---
2024-04-14 09:12 am SW 7.0 14.0----29.67- 62.1- 39.0---
2024-04-14 09:06 am SW 8.0 18.1----29.67- 61.5- 38.8---
2024-04-14 09:00 am SW 8.9 15.0----29.67- 61.2- 38.7---
2024-04-14 08:54 am SW 8.9 15.9----29.67- 61.0- 38.1---
2024-04-14 08:48 am-------29.67- 61.5- 38.1---
2024-04-14 08:42 am-------29.67- 60.8- 38.1---
2024-04-14 08:36 am-------29.68- 60.3- 37.6---
2024-04-14 08:30 am SW 9.9 18.1----29.68-------
2024-04-14 08:24 amSSW 8.9 19.0----29.68-------
2024-04-14 08:18 am SW 8.9 15.0----29.68- 59.2- 37.0---
2024-04-14 08:12 amSSW 9.9 18.1----29.69- 59.4- 36.7---
2024-04-14 08:06 amSSW 12.0 18.1----29.69- 59.4- 36.5---
2024-04-14 08:00 amSSW 11.1 17.1----29.69-0.07------
2024-04-14 07:54 am SW 8.9 19.0----29.69-------
2024-04-14 07:48 amSSW 11.1 20.0----29.69-------
2024-04-14 07:42 amSSW 9.9 20.0----29.69-------
2024-04-14 07:36 amSSW 9.9 17.1----29.69-------
2024-04-14 07:30 am SW 8.9 18.1----29.70- 59.0- 35.4---
2024-04-14 07:24 amSSW 9.9 20.0----29.69- 59.0- 35.2---
2024-04-14 07:18 amSSW 9.9 15.9----29.70-------
2024-04-14 07:12 amSSW 11.1 19.0----29.70-------
2024-04-14 07:06 am SW 9.9 17.1----29.70-------
2024-04-14 07:00 am SW 9.9 15.0----29.70-0.11 59.4- 34.3---
2024-04-14 06:54 am SW 8.9 17.1----29.70- 59.7- 34.3---
2024-04-14 06:48 amSSW 9.9 17.1----29.70-------
2024-04-14 06:42 amSSW 9.9 15.9----29.70-------
2024-04-14 06:36 amSSW 8.0 15.9----29.70-------
2024-04-14 06:30 amSSW 8.9 17.1----29.70- 59.0- 33.8---
2024-04-14 06:24 am SW 9.9 15.9----29.70- 58.8- 34.0---
2024-04-14 06:18 amSSW 8.9 15.0----29.70- 57.7- 34.3---
2024-04-14 06:12 amSSW 9.9 15.0----29.71- 56.7- 34.5---
2024-04-14 06:06 amSSW 8.0 13.0----29.72- 55.8- 34.7---
2024-04-14 06:00 am S 6.0 11.1------ 55.2- 34.5---
2024-04-14 05:54 am S 7.0 11.1------ 54.7- 34.9---
2024-04-14 05:48 am S 7.0 11.1------ 54.3- 34.9---
2024-04-14 05:42 am S 8.0 13.0------ 54.1- 34.5---
2024-04-14 05:36 am S 8.0 13.0------ 53.8- 34.3---
2024-04-14 05:30 am S 8.0 15.0----29.73-------
2024-04-14 05:24 am S 8.0 13.0----29.74-------
2024-04-14 05:18 amSSW 7.0 13.0----29.75- 53.6- 34.3---
2024-04-14 05:12 am S 7.0 13.0----29.75- 53.4- 34.7---
2024-04-14 05:06 am S 8.0 14.0----29.75- 53.1- 34.7---
2024-04-14 05:00 am S 8.0 12.0----29.76-0.11 52.3- 34.9---
2024-04-14 04:54 am S 7.0 12.0----29.77- 52.0- 34.7---
2024-04-14 04:48 am S 6.0 9.9----29.77- 52.0- 34.7---
2024-04-14 04:42 am S 7.0 11.1----29.78- 52.0- 34.7---
2024-04-14 04:36 am S 6.0 11.1----29.78- 51.8- 34.7---
2024-04-14 04:30 am S 6.0 11.1----29.78- 51.8- 34.7---
2024-04-14 04:24 am S 6.0 9.9----29.78- 51.6- 34.7---
2024-04-14 04:18 am S 6.0 8.9----29.79- 51.4- 35.1---
2024-04-14 04:12 am S 4.1 8.0----29.79- 51.1- 35.4---
2024-04-14 04:06 am S 6.0 8.9----29.80- 51.3- 35.6---
2024-04-14 04:00 am S 6.0 8.9----29.80-0.09 51.3- 35.8---
2024-04-14 03:54 am S 6.0 9.9----29.81- 51.3- 35.8---
2024-04-14 03:48 am S 6.0 8.9----29.81- 51.4- 36.0---
2024-04-14 03:42 am S 6.0 8.9----29.82- 51.6- 36.0---
2024-04-14 03:36 am S 5.1 8.0----29.82- 51.6- 36.1---
2024-04-14 03:30 am S 6.0 9.9----29.83- 51.6- 36.0---
2024-04-14 03:24 am S 6.0 8.9----29.83- 51.8- 35.8---
2024-04-14 03:18 am S 5.1 8.9----29.83- 52.0- 36.0---
2024-04-14 03:12 am S 5.1 8.0----29.83- 52.0- 36.0---
2024-04-14 03:06 am S 6.0 8.9----29.84- 52.2- 36.0---
2024-04-14 03:00 am S 5.1 8.9----29.84-0.08 52.2- 36.1---
2024-04-14 02:54 am S 5.1 7.0----29.84- 52.2- 36.0---